When you browse on this site, cookies collect data to enhance your experience and personalize the content and advertising you see.
Visit our Privacy Policy to learn more. By continuing to use the site, you agree to this use of cookies and data.
  • en France
  • Liste des pays
  • À 7 jours
  • Température de l'eau
  • Carte satellitaire
  • Carte météo
  • Widgets météo
  • user-avatar
    Se connecter

    Météo par heure à Canillo

    Ce jour, 19 Janvier, Samedi

    Heure Température Précipitation Vent Pression Humidité
    00:00 -5°C° 0 mm 0 m/s 612 mmHg 73%
    01:00 -6°C° 0 mm 0 m/s 611 mmHg 73%
    02:00 -6°C° 0 mm 1 m/s 611 mmHg 72%
    03:00 -6°C° 0 mm 1 m/s 611 mmHg 72%
    04:00 -6°C° 0 mm 1 m/s 611 mmHg 72%
    05:00 -7°C° 0 mm 1 m/s 611 mmHg 72%
    06:00 -7°C° 0 mm 1 m/s 611 mmHg 72%
    07:00 -4°C° 0 mm 1 m/s 611 mmHg 68%
    08:00 -4°C° 0 mm 0 m/s 612 mmHg 65%
    09:00 -2°C° 0 mm 0 m/s 613 mmHg 62%
    10:00 -1°C° 0 mm 0 m/s 613 mmHg 59%
    11:00 +1°C° 0 mm 1 m/s 613 mmHg 57%
    12:00 +3°C° 0 mm 1 m/s 614 mmHg 54%
    13:00 +2°C° 0 mm 1 m/s 613 mmHg 55%
    14:00 +2°C° 0 mm 1 m/s 613 mmHg 57%
    15:00 +2°C° 0 mm 1 m/s 612 mmHg 58%
    16:00 0°C° 0 mm 1 m/s 611 mmHg 65%
    17:00 -2°C° 0 mm 1 m/s 610 mmHg 72%
    18:00 -3°C° 0 mm 1 m/s 610 mmHg 79%
    19:00 -3°C° 0 mm 1 m/s 610 mmHg 78%
    20:00 -3°C° 0 mm 1 m/s 610 mmHg 78%
    21:00 -3°C° 0 mm 1 m/s 610 mmHg 77%
    22:00 -3°C° 0 mm 1 m/s 610 mmHg 77%
    23:00 -3°C° 0 mm 1 m/s 610 mmHg 77%

    Demain, 20 Janvier, Dimanche

    Heure Température Précipitation Vent Pression Humidité
    00:00 -3°C° 0 mm 1 m/s 610 mmHg 77%
    01:00 -3°C° 0 mm 1 m/s 610 mmHg 76%
    02:00 -3°C° 0 mm 1 m/s 609 mmHg 76%
    03:00 -3°C° 0 mm 1 m/s 609 mmHg 75%
    04:00 -3°C° 0 mm 1 m/s 609 mmHg 74%
    05:00 -3°C° 0 mm 1 m/s 609 mmHg 73%
    06:00 -3°C° 0 mm 1 m/s 609 mmHg 72%
    07:00 -2°C° 0 mm 1 m/s 610 mmHg 69%
    08:00 -1°C° 0 mm 1 m/s 611 mmHg 65%
    09:00 -1°C° 0 mm 1 m/s 611 mmHg 61%
    10:00 0°C° 0 mm 1 m/s 612 mmHg 59%
    11:00 +2°C° 0 mm 1 m/s 612 mmHg 56%
    12:00 +2°C° 0 mm 2 m/s 613 mmHg 54%
    13:00 +1°C° 0 mm 2 m/s 612 mmHg 58%
    14:00 +1°C° 0 mm 2 m/s 612 mmHg 62%
    15:00 -1°C° 0 mm 2 m/s 612 mmHg 67%
    16:00 0°C° 0.1 mm 1 m/s 612 mmHg 74%
    17:00 -1°C° 0.1 mm 1 m/s 611 mmHg 81%
    18:00 -3°C° 0.1 mm 1 m/s 611 mmHg 88%
    19:00 -3°C° 0 mm 1 m/s 612 mmHg 87%
    20:00 -3°C° 0 mm 1 m/s 612 mmHg 86%
    21:00 -3°C° 0 mm 1 m/s 612 mmHg 85%
    22:00 -3°C° 0.3 mm 1 m/s 612 mmHg 86%
    23:00 -2°C° 0.3 mm 1 m/s 613 mmHg 87%

    Après-demain, 21 Janvier, Lundi

    Heure Température Précipitation Vent Pression Humidité
    00:00 -2°C° 0.3 mm 1 m/s 613 mmHg 88%
    01:00 -4°C° 0.1 mm 2 m/s 613 mmHg 89%
    02:00 -5°C° 0.1 mm 2 m/s 613 mmHg 89%
    03:00 -5°C° 0.1 mm 2 m/s 613 mmHg 90%
    04:00 -5°C° 0.2 mm 2 m/s 613 mmHg 89%
    05:00 -5°C° 0.2 mm 2 m/s 613 mmHg 89%
    06:00 -5°C° 0.2 mm 2 m/s 613 mmHg 89%
    07:00 -5°C° 0.2 mm 2 m/s 614 mmHg 86%
    08:00 -5°C° 0.2 mm 2 m/s 614 mmHg 84%
    09:00 -4°C° 0.2 mm 2 m/s 614 mmHg 81%
    10:00 -4°C° 0.1 mm 2 m/s 615 mmHg 77%
    11:00 -4°C° 0.1 mm 3 m/s 615 mmHg 73%
    12:00 -2°C° 0.1 mm 3 m/s 615 mmHg 69%
    13:00 -4°C° 0.1 mm 3 m/s 615 mmHg 71%
    14:00 -4°C° 0.1 mm 3 m/s 615 mmHg 72%
    15:00 -4°C° 0.1 mm 3 m/s 615 mmHg 74%
    16:00 -5°C° 0 mm 3 m/s 615 mmHg 79%
    17:00 -5°C° 0 mm 2 m/s 614 mmHg 84%
    18:00 -7°C° 0 mm 2 m/s 614 mmHg 89%
    19:00 -7°C° 0 mm 2 m/s 614 mmHg 90%
    20:00 -8°C° 0 mm 2 m/s 614 mmHg 90%
    21:00 -8°C° 0 mm 2 m/s 614 mmHg 91%
    22:00 -9°C° 0 mm 2 m/s 614 mmHg 88%
    23:00 -9°C° 0 mm 2 m/s 613 mmHg 85%

    22 Janvier, Mardi

    Heure Température Précipitation Vent Pression Humidité
    00:00 -9°C° 0 mm 2 m/s 613 mmHg 82%
    01:00 -10°C° 0 mm 2 m/s 613 mmHg 76%
    02:00 -10°C° 0 mm 2 m/s 612 mmHg 69%
    03:00 -10°C° 0 mm 2 m/s 612 mmHg 63%
    04:00 -10°C° 0 mm 2 m/s 612 mmHg 60%
    05:00 -10°C° 0 mm 2 m/s 611 mmHg 57%
    06:00 -10°C° 0 mm 2 m/s 611 mmHg 54%
    07:00 -7°C° 0 mm 1 m/s 611 mmHg 52%
    08:00 -4°C° 0 mm 1 m/s 611 mmHg 49%
    09:00 -3°C° 0 mm 1 m/s 612 mmHg 47%
    10:00 -2°C° 0.2 mm 1 m/s 611 mmHg 52%
    11:00 -2°C° 0.2 mm 1 m/s 611 mmHg 58%
    12:00 -3°C° 0.2 mm 2 m/s 610 mmHg 64%
    13:00 -3°C° 0.7 mm 2 m/s 610 mmHg 70%
    14:00 -4°C° 0.7 mm 2 m/s 609 mmHg 76%
    15:00 -5°C° 0.7 mm 3 m/s 608 mmHg 83%
    16:00 -4°C° 0.4 mm 2 m/s 607 mmHg 85%
    17:00 -5°C° 0.4 mm 2 m/s 607 mmHg 87%
    18:00 -6°C° 0.4 mm 2 m/s 606 mmHg 88%
    19:00 -4°C° 0.4 mm 1 m/s 605 mmHg 90%
    20:00 -4°C° 0.4 mm 1 m/s 605 mmHg 92%
    21:00 -4°C° 0.4 mm 1 m/s 604 mmHg 94%
    22:00 -6°C° 1 mm 2 m/s 604 mmHg 94%
    23:00 -7°C° 1 mm 2 m/s 603 mmHg 94%

    23 Janvier, Mercredi

    Heure Température Précipitation Vent Pression Humidité
    00:00 -8°C° 1 mm 3 m/s 603 mmHg 95%
    01:00 -9°C° 1.1 mm 3 m/s 602 mmHg 94%
    02:00 -10°C° 1.1 mm 3 m/s 602 mmHg 94%
    03:00 -10°C° 1.1 mm 3 m/s 601 mmHg 93%
    04:00 -12°C° 0.6 mm 4 m/s 601 mmHg 93%
    05:00 -14°C° 0.6 mm 5 m/s 600 mmHg 92%
    06:00 -14°C° 0.6 mm 5 m/s 600 mmHg 91%
    07:00 -15°C° 0.5 mm 6 m/s 600 mmHg 90%
    08:00 -15°C° 0.5 mm 6 m/s 600 mmHg 88%
    09:00 -15°C° 0.5 mm 7 m/s 600 mmHg 87%
    10:00 -15°C° 0.1 mm 7 m/s 600 mmHg 85%
    11:00 -15°C° 0.1 mm 7 m/s 600 mmHg 83%
    12:00 -14°C° 0.1 mm 7 m/s 600 mmHg 81%
    13:00 -14°C° 0.1 mm 7 m/s 600 mmHg 82%
    14:00 -15°C° 0.1 mm 8 m/s 600 mmHg 83%
    15:00 -15°C° 0.1 mm 8 m/s 600 mmHg 84%
    16:00 -16°C° 0.1 mm 8 m/s 600 mmHg 85%
    17:00 -16°C° 0.1 mm 8 m/s 600 mmHg 86%
    18:00 -17°C° 0.1 mm 7 m/s 600 mmHg 86%
    19:00 -17°C° 0.1 mm 7 m/s 601 mmHg 87%
    20:00 -17°C° 0.1 mm 7 m/s 601 mmHg 87%
    21:00 -17°C° 0.1 mm 7 m/s 601 mmHg 87%
    22:00 -16°C° 0 mm 6 m/s 601 mmHg 87%
    23:00 -17°C° 0 mm 6 m/s 601 mmHg 87%

    24 Janvier, Jeudi

    Heure Température Précipitation Vent Pression Humidité
    00:00 -17°C° 0 mm 5 m/s 601 mmHg 87%
    01:00 -17°C° 0 mm 5 m/s 600 mmHg 87%
    02:00 -18°C° 0 mm 5 m/s 600 mmHg 87%
    03:00 -17°C° 0 mm 4 m/s 599 mmHg 87%
    04:00 -17°C° 0 mm 4 m/s 600 mmHg 87%
    05:00 -17°C° 0 mm 4 m/s 600 mmHg 87%
    06:00 -17°C° 0 mm 5 m/s 600 mmHg 88%
    07:00 -17°C° 0 mm 5 m/s 601 mmHg 86%
    08:00 -15°C° 0 mm 5 m/s 601 mmHg 84%
    09:00 -14°C° 0 mm 5 m/s 602 mmHg 82%
    10:00 -13°C° 0 mm 5 m/s 603 mmHg 80%
    11:00 -12°C° 0 mm 5 m/s 603 mmHg 78%
    12:00 -11°C° 0 mm 5 m/s 604 mmHg 77%
    13:00 -11°C° 0 mm 5 m/s 604 mmHg 79%
    14:00 -12°C° 0 mm 5 m/s 604 mmHg 80%
    15:00 -12°C° 0 mm 5 m/s 604 mmHg 82%
    16:00 -13°C° 0 mm 5 m/s 604 mmHg 84%
    17:00 -14°C° 0 mm 4 m/s 604 mmHg 86%
    18:00 -15°C° 0 mm 4 m/s 604 mmHg 89%
    19:00 -15°C° 0 mm 4 m/s 604 mmHg 88%
    20:00 -15°C° 0 mm 4 m/s 605 mmHg 88%
    21:00 -15°C° 0 mm 4 m/s 606 mmHg 88%
    22:00 -16°C° 0 mm 4 m/s 606 mmHg 86%
    23:00 -16°C° 0 mm 4 m/s 606 mmHg 83%
    Voir plus